Tracking 22989 objects as of 8-May-2021
HD Live streaming from Space Station
objects crossing your sky now

THORAD AGENA D DEB

Track THORAD AGENA D DEB now!
10-day predictions


NORAD ID: 5165
Int'l Code: 1970-025JY
Perigee: 556.3 km
Apogee: 568.1 km
Inclination: 99.7 °
Period: 95.8 minutes
Semi major axis: 6933 km
RCS: 0.0499 m2 (small)
Launch date: April 8, 1970
Source: United States (US)
Launch site: AIR FORCE WESTERN TEST RANGE (AFWTR)

Note: This is SATELLITE DEBRIS
aabbcc
Your satellite tracking list
Your tracking list is empty




NASA's NSSDC Master Catalog

Two Line Element Set (TLE):
1 05165U 70025JY  21127.74374987  .00005885  00000-0  43391-3 0  9992
2 05165  99.6936 210.1931 0008515 336.7355  23.3478 15.03829042639244
Source of the keplerian elements: AFSPC